Location: Chippewa Lake
(41.0698°N, 81.9010°W)
Time: 21:02:18
(UTC+00:00)

NPP - Pass Details

Date: 09 May 2021
Orbit: 826 x 827 km, 98.7° (Epoch: 17 June)

Event Time Altitude Azimuth Distance (km) Brightness Sun altitude
Rises 07:58:17 0° 5° (N) 3,375 7.7 -21.4°
Reaches altitude 10° 08:00:46 10° 358° (N) 2,438 6.7 -21.1°
Maximum altitude 08:05:42 38° 292° (WNW) 1,243 4.4 -20.5°
Enters shadow 08:07:05 33° 259° (W) 1,372 4.4 -20.4°
